All Stations Radar Satellite Rainfall Station Map Enhanced Site
Observations: Wind Gusts Humidity Temperature    
Forecasts: Wind Gusts Humidity Temperature    

Valley Center (907, 908, 909, 1030, 6926) Station Data (Station Map)

Red Flag Warning: No
Fire Weather Zone: 250
SDGE Region: North East
Lat/Lon: 33.236/-117.001

Observations

Time (PDT)Wind Spd/GustTempRHFuel Moisture
10/25 5:30amENE 1 G 164°42%-
10/25 5:20amENE 1 G 363°43%-
10/25 5:10amNNE 1 G 464°41%-
10/25 5:00amSE 1 G 364°40%-
10/25 4:50amSE 1 G 265°39%-
10/25 4:40amESE 1 G 565°40%-
10/25 4:30amENE 1 G 263°43%-
10/25 4:20amENE 1 G 463°43%-
10/25 4:10amE 1 G 463°42%-
10/25 4:00amNE 1 G 364°39%-
10/25 3:50amENE 1 G 265°38%-
10/25 3:40amENE 1 G 264°39%-
10/25 3:30amE 1 G 264°38%-
10/25 3:20amNNE 1 G 363°40%-
10/25 3:10amNE 1 G 162°42%-
10/25 3:00amE 1 G 263°40%-
10/25 2:50amNNE 1 G 364°39%-
10/25 2:40amN 2 G 366°35%-
10/25 2:30amNW 1 G 368°31%-
10/25 2:20amNW 1 G 267°32%-
10/25 2:10amWNW 1 G 267°34%-
10/25 2:00amNNW 2 G 466°36%-
10/25 1:50amNW 2 G 467°34%-
10/25 1:40amSW 1 G 368°31%-
10/25 1:30amSE 1 G 169°30%-
10/25 1:20amESE 1 G 270°30%-
10/25 1:10amESE 1 G 369°30%-
10/25 1:00amESE 1 G 369°30%-
10/25 12:50amESE 1 G 169°30%-
10/25 12:40amESE 1 G 370°30%-
10/25 12:30amESE 1 G 369°31%-
10/25 12:20amESE 1 G 369°30%-
10/25 12:10amE 1 G 369°30%-
10/25 12:00amE 1 G 270°29%-
10/24 11:50pmE 1 G 369°30%-
10/24 11:40pmENE 1 G 268°30%-
10/24 11:30pmENE 1 G 169°29%-
10/24 11:20pmE 1 G 169°29%-
10/24 11:10pmENE 1 G 269°29%-
10/24 11:00pmENE 1 G 369°29%-
10/24 10:50pmNE 1 G 269°30%-
10/24 10:40pmNNE 1 G 269°29%-
10/24 10:30pmENE 1 G 270°28%-
10/24 10:20pmNNE 1 G 269°28%-
10/24 10:10pmE 1 G 271°27%-
10/24 10:00pmENE 1 G 270°27%-
10/24 9:50pmENE 1 G 270°27%-
10/24 9:40pmNE 1 G 370°27%-
10/24 9:30pmNE 1 G 469°28%-
10/24 9:20pmN 1 G 268°29%-
10/24 9:10pmNNE 2 G 369°28%-
10/24 9:00pmNNE 2 G 269°28%-
10/24 8:50pmNNE 1 G 270°27%-
10/24 8:40pmNE 1 G 272°26%-
10/24 8:30pmNNE 1 G 271°26%-
10/24 8:20pmNNE 1 G 171°26%-
10/24 8:10pmNE 1 G 272°25%-
10/24 8:00pmNE 1 G 272°25%-
10/24 7:50pmNE 1 G 271°26%-
10/24 7:40pmNNE 1 G 272°25%-
10/24 7:30pmNE 1 G 172°25%-
10/24 7:20pmNE 1 G 173°24%-
10/24 7:10pmNNE 1 G 274°23%-
10/24 7:00pmNE 1 G 274°23%-
10/24 6:50pmE 1 G 375°22%-
10/24 6:40pmWNW 1 G 177°19%-
10/24 6:30pmN 1 G 277°19%-
10/24 6:20pmNW 1 G 279°15%-
10/24 6:10pmWNW 2 G 480°15%-
10/24 6:00pmW 2 G 581°17%-
10/24 5:50pmWSW 2 G 482°17%-
10/24 5:40pmSW 2 G 683°17%-
10/24 5:30pmSSW 2 G 584°16%-
10/24 5:20pmSW 3 G 884°16%-
10/24 5:10pmSW 2 G 685°15%-
10/24 5:00pmSSW 2 G 685°15%-
10/24 4:50pmSW 2 G 686°14%-
10/24 4:40pmSW 3 G 786°15%-
10/24 4:30pmWSW 4 G 1086°15%-
10/24 4:20pmSW 3 G 887°15%-
10/24 4:10pmSW 3 G 1086°15%-
10/24 4:00pmSW 4 G 886°16%-
10/24 3:50pmWSW 5 G 1087°17%-
10/24 3:40pmSW 4 G 1087°17%-
10/24 3:30pmSSW 3 G 987°18%-
10/24 3:20pmSW 5 G 1087°18%-
10/24 3:10pmSSW 5 G 1287°19%-
10/24 3:00pmSW 6 G 1387°19%-
10/24 2:50pmSW 6 G 1488°18%-
10/24 2:40pmSW 6 G 1388°17%-
10/24 2:30pmSSW 5 G 1289°16%-
10/24 2:20pmSW 4 G 1089°16%-
10/24 2:10pmWSW 6 G 1188°16%-
10/24 2:00pmSW 5 G 1489°14%-
10/24 1:50pmSW 3 G 1189°14%-
10/24 1:40pmS 4 G 990°13%-
10/24 1:30pmSSW 3 G 990°13%-
10/24 1:20pmSW 3 G 890°13%-
10/24 1:10pmSSW 2 G 790°13%-
10/24 1:00pmSSW 4 G 1089°13%-
10/24 12:50pmSSW 4 G 989°13%-
10/24 12:40pmSSW 4 G 1189°13%-
10/24 12:30pmSSW 3 G 989°13%-
10/24 12:20pmS 4 G 990°13%-
10/24 12:10pmS 3 G 789°13%-
10/24 12:00pmSSW 3 G 788°14%-
10/24 11:50amSW 4 G 888°14%-
10/24 11:40amSSW 3 G 888°13%-
10/24 11:30amWSW 3 G 987°14%-
10/24 11:20amSW 2 G 788°14%-
10/24 11:10amSSW 3 G 587°14%-
10/24 11:00amS 3 G 887°14%-
10/24 10:50amSSW 3 G 687°14%-
10/24 10:40amSW 2 G 787°15%-
10/24 10:30amS 1 G 486°15%-
10/24 10:20amSSE 1 G 386°15%-
10/24 10:10amSE 1 G 385°15%-
10/24 10:00amSSE 1 G 285°16%-
10/24 9:50amNNW 1 G 383°17%-
10/24 9:40amENE 1 G 283°17%-
10/24 9:30amE 1 G 281°18%-
10/24 9:20amESE 1 G 281°20%-
10/24 9:10amSE 1 G 280°21%-
10/24 9:00amSE 1 G 279°22%-
10/24 8:50amESE 1 G 178°23%-
10/24 8:40amS 1 G 276°25%-
10/24 8:30amSSE 1 G 175°26%-
10/24 8:20amE 1 G 272°27%-
10/24 8:10amESE 1 G 271°27%-
10/24 8:00amESE 1 G 369°28%-
10/24 7:50amESE 2 G 369°28%-
10/24 7:40amE 2 G 468°29%-
10/24 7:30amE 2 G 267°30%-
10/24 7:20amESE 1 G 366°31%-
10/24 7:10amE 1 G 266°32%-
10/24 7:00amE 1 G 264°33%-
10/24 6:50amESE 1 G 364°34%-
10/24 6:40amESE 1 G 265°32%-
10/24 6:30amENE 1 G 165°32%-
10/24 6:20amENE 1 G 266°31%-
10/24 6:10amNE 2 G 467°30%-
10/24 6:00amENE 1 G 266°31%-
10/24 5:50amENE 1 G 267°30%-
10/24 5:40amENE 2 G 367°30%-
10/24 5:30amENE 1 G 267°31%-
10/24 5:20amNE 2 G 366°31%-
10/24 5:10amENE 1 G 266°32%-
10/24 5:00amENE 1 G 166°33%-
10/24 4:50amENE 1 G 266°32%-
10/24 4:40amENE 2 G 366°33%-
10/24 4:30amNE 2 G 465°33%-
10/24 4:20amNE 1 G 266°32%-
10/24 4:10amENE 1 G 266°32%-
10/24 4:00amENE 1 G 267°31%-
10/24 3:50amENE 1 G 267°31%-
10/24 3:40amENE 1 G 267°32%-
10/24 3:30amENE 1 G 266°32%-
10/24 3:20amE 1 G 267°32%-
10/24 3:10amE 1 G 265°34%-
10/24 3:00amE 1 G 264°36%-
10/24 2:50amE 1 G 264°36%-
10/24 2:40amNNE 1 G 264°36%-
10/24 2:30amN 1 G 165°34%-
10/24 2:20amNNW 1 G 166°34%-
10/24 2:10amNNE 1 G 166°33%-
10/24 2:00amENE 1 G 267°32%-
10/24 1:50amE 1 G 167°32%-
10/24 1:40amESE 1 G 267°32%-
10/24 1:30amE 1 G 267°32%-
10/24 1:20amNE 1 G 267°33%-
10/24 1:10amENE 1 G 167°32%-
10/24 1:00amNE 1 G 168°32%-
10/24 12:50amNE 1 G 268°32%-
10/24 12:40amNE 1 G 267°34%-
10/24 12:30amNE 1 G 266°35%-
10/24 12:20amE 1 G 166°36%-
10/24 12:10amNNE 1 G 167°34%-
10/24 12:00amNNE 1 G 167°34%-
10/23 11:50pmNE 1 G 166°36%-
10/23 11:40pmNE 1 G 265°38%-
10/23 11:30pmNE 1 G 165°39%-
10/23 11:20pmNE 1 G 165°38%-
10/23 11:10pmNNE 1 G 265°37%-
10/23 11:00pmNNE 1 G 266°38%-
10/23 10:50pmNNE 1 G 266°37%-
10/23 10:40pmNE 1 G 166°39%-
10/23 10:30pmNNE 1 G 165°40%-
10/23 10:20pmNNE 1 G 166°38%-
10/23 10:10pmNE 1 G 165°40%-
10/23 10:00pmNNE 1 G 165°40%-
10/23 9:50pmNNE 1 G 166°38%-
10/23 9:40pmNNE 1 G 267°37%-
10/23 9:30pmNE 1 G 167°38%-
10/23 9:20pmNNE 1 G 267°37%-
10/23 9:10pmNE 1 G 168°37%-
10/23 9:00pmENE 1 G 268°36%-
10/23 8:50pmE 1 G 268°37%-
10/23 8:40pmENE 1 G 167°37%-
10/23 8:30pmNE 1 G 166°39%-
10/23 8:20pmNNE 1 G 167°40%-
10/23 8:10pmNNE 1 G 267°40%-
10/23 8:00pmNNE 1 G 267°40%-
10/23 7:50pmNNE 2 G 368°39%-
10/23 7:40pmNNE 2 G 369°35%-
10/23 7:30pmNNE 1 G 270°33%-
10/23 7:20pmNE 1 G 170°33%-
10/23 7:10pmNE 1 G 270°33%-
10/23 7:00pmNE 1 G 171°32%-
10/23 6:50pmN 1 G 274°31%-
10/23 6:40pmNW 1 G 276°30%-
10/23 6:30pmWNW 1 G 377°26%-
10/23 6:20pmW 1 G 278°19%-
10/23 6:10pmWSW 1 G 378°17%-
10/23 6:00pmWSW 2 G 480°19%-